This is the latest recevied weather packets stored in our database for station/object WA4IKQ. If no packets are shown the sender has not sent any weather packets the latest 1 day(s).
| Time | Temp. | Humidity | Pressure | Rain* | Wind** | Luminosity | Snow |
|---|---|---|---|---|---|---|---|
| 1778032232 | 23.33° C | 59% | 1015.8 hPa | 0 mm | 0.45 m/s, 32° | - | - |
| 1778032208 | 23.33° C | 59% | 1015.7 hPa | 0 mm | 1.34 m/s, 68° | - | - |
| 1778031932 | 23.33° C | 59% | 1015.7 hPa | 0 mm | 1.34 m/s, 68° | - | - |
| 1778031490 | 23.89° C | 58% | 1015.8 hPa | 0 mm | 0 m/s | - | - |
| 1778031330 | 23.89° C | 58% | 1015.8 hPa | 0 mm | 0 m/s | - | - |
| 1778031030 | 23.89° C | 58% | 1015.8 hPa | 0 mm | 0.89 m/s, 73° | - | - |
| 1778030731 | 23.89° C | 57% | 1015.8 hPa | 0 mm | 1.34 m/s, 60° | - | - |
| 1778030592 | 23.89° C | 57% | 1015.8 hPa | 0 mm | 1.34 m/s, 15° | - | - |
| 1778030431 | 23.89° C | 57% | 1015.8 hPa | 0 mm | 1.34 m/s, 15° | - | - |
| 1778030141 | 23.89° C | 57% | 1015.7 hPa | 0 mm | 1.34 m/s, 37° | - | - |
| 1778030096 | 23.89° C | 56% | 1015.6 hPa | 0 mm | 0.45 m/s, 53° | - | - |
| 1778029832 | 23.89° C | 56% | 1015.6 hPa | 0 mm | 0.45 m/s, 53° | - | - |
| 1778029641 | 23.89° C | 56% | 1015.7 hPa | 0 mm | 0 m/s | - | - |
| 1778029532 | 23.89° C | 56% | 1015.7 hPa | 0 mm | 0 m/s | - | - |
| 1778029230 | 24.44° C | 56% | 1015.6 hPa | 0 mm | 1.34 m/s, 56° | - | - |
| 1778029095 | 24.44° C | 56% | 1015.5 hPa | 0 mm | 0.45 m/s, 75° | - | - |
| 1778028932 | 24.44° C | 56% | 1015.5 hPa | 0 mm | 0.45 m/s, 75° | - | - |
| 1778028903 | 24.44° C | 56% | 1015.5 hPa | 0 mm | 0.45 m/s, 37° | - | - |
| 1778028808 | 24.44° C | 56% | 1015.5 hPa | 0 mm | 0.45 m/s, 37° | - | - |
| 1778028630 | 24.44° C | 56% | 1015.5 hPa | 0 mm | 0.45 m/s, 37° | - | - |
| 1778028211 | 24.44° C | 56% | 1015.4 hPa | 0 mm | 3.58 m/s, 69° | - | - |
| 1778028031 | 24.44° C | 56% | 1015.4 hPa | 0 mm | 3.58 m/s, 69° | - | - |
| 1778027590 | 25° C | 56% | 1015.2 hPa | 0 mm | 0.89 m/s, 44° | - | - |
| 1778027432 | 25° C | 56% | 1015.2 hPa | 0 mm | 0.89 m/s, 44° | - | - |
| 1778027338 | 25° C | 55% | 1015.3 hPa | 0 mm | 3.58 m/s, 73° | - | - |
* Rain latest hour (hover to see other rain measurements)
** Current wind speed in m/s (hover to see current wind gust speed)